Regional Weather Roundup
Issued by NWS Newport/Morehead, NC

Current Version | Previous Version | Text Only | Print | Product List | Glossary On
Versions: 1 2 3 4 5 6 7 8 9 10 11 12 13 14 15 16 17 18 19 20 21 22 23 24 25 26 27 28 29 30 31 32 33 34 35 36 37 38 39 40 41 42 43 44 45 46 47 48 49 50
000
ASUS42 KMHX 212325
RWRMHX
WEATHER ROUNDUP FOR EASTERN NORTH CAROLINA
NATIONAL WEATHER SERVICE NEWPORT/MOREHEAD CITY NC
600 PM EST TUE NOV 21 2017

NOTE: "FAIR" INDICATES FEW OR NO CLOUDS BELOW 12,000 FEET
WITH NO SIGNIFICANT WEATHER AND/OR OBSTRUCTIONS TO VISIBILITY

NCZ015>017-031-032-045>047-102-103-220000-
NORTH COAST

CITY           SKY/WX    TMP DP  RH WIND       PRES   REMARKS
EDENTON        CLOUDY    56  49  78 CALM      30.14S
ELIZABETH CITY CLOUDY    57  50  77 SE10      30.13F
KITTY HAWK     CLOUDY    59  53  81 CALM      30.15S
MANTEO         CLOUDY    58  53  83 SE6       30.16S

$$

NCZ045>047-081-094-103-104-220000-
CENTRAL COAST

CITY           SKY/WX    TMP DP  RH WIND       PRES   REMARKS
FRISCO         PTCLDY    62  56  80 NE5       30.14F

$$

NCZ095-097-098-100-101-220000-
SOUTHERN COAST

CITY           SKY/WX    TMP DP  RH WIND       PRES   REMARKS
BEAUFORT       CLOUDY    59  54  83 E5        30.13S
CEDAR ISLAND   NOT AVBL
JACKSONVILLE   CLOUDY    61  56  83 E6        30.11R
PINEY ISLAND     N/A    N/A N/A N/A E7        30.13S
WILMINGTON     CLOUDY    62  56  80 E5        30.09F


$$

NCZ011>013-027>030-043-044-078>080-089-090>093-098-220000-
COASTAL PLAIN

CITY           SKY/WX    TMP DP  RH WIND       PRES   REMARKS
AHOSKIE        CLOUDY    54  48  81 CALM      30.12S
CLINTON        CLOUDY    56  56 100 CALM      30.10S
ELIZABETHTOWN  NOT AVBL
GOLDSBORO      CLOUDY    58  51  77 CALM      30.09F
GREENVILLE     CLOUDY    59  50  72 SE3       30.13F
HAVELOCK       CLOUDY    56  53  90 CALM      30.14S
KENANSVILLE    CLOUDY    61  52  72 CALM      30.10S
KINSTON        CLOUDY    61  50  67 CALM      30.11F
NEW BERN       CLOUDY    58  51  78 SE7       30.13F
RICHLANDS      CLOUDY    60  54  80 E6        30.11F
ROCKY MOUNT    CLOUDY    56  49  77 CALM      30.11S
WASHINGTON     CLOUDY    55  51  85 CALM      30.12F
WHITEVILLE     DRIZZLE   60  56  87 E8        30.08S

$$

AMZ130-135-150-152-154-156-158-170-250-252-270-ANZ085-086-088-633-658-670-220000-
MARINE OBSERVATIONS

STATION/POSITION TIME  TEMP    WIND        PRES    WAVE   SWELL
                       AIR SEA DIR/SP/G            HT/PER HT/PER
                 (UTC) (F)     (DEG/KT/KT) (MB)    (FT/S) (FT/S)
CHESAPEAKE LIGHT NOT AVBL
64 E VA BEACH    2250   62 62  130/  8/ 10 1022.2    1/ 8   2/ 8
DUCK             2300   60 59  130/ 13/ 14 1020.6
2 E DUCK         2300      61                N/A     1/12
OREGON INLET     2300   59 54   60/  4/  6 1021.1
13E OREGON INLT  2248      63                N/A     1/ 8   2/ 8
HATTERAS CG      2300   60 58   60/  8/ 10 1020.4
DIAMOND BUOY     2310   71 76  160/ 10/ 19 1020.7
CAPE LOOKOUT     2300           50/  9/ 10 1020.4
BEAUFORT LAB     2300   60 59   50/  6/  8 1020.1
30 SE NEW RVR IN 2308   70 67  140/ 12/ 14 1019.1
30 SE NEW RVR IN 2300      67                N/A     4/ 5
27 SE WRIGHTSVLE 2308   71 68  150/ 14/ 19 1018.4
5 SE WRIGHTSVLE  2308   65 64   80/  6/ 12 1018.6
225 S CAPE HAT   2250   73 76  110/ 19/ 23 1018.5    7/ 7   2/11
41 SE CHARLESTON 2310   69 74   90/ 10/ 12 1016.2

$$




USA.gov is the U.S. government's official web portal to all federal, state and local government web resources and services.